Knoxville, TN

3:57 AM EST on December 14, 2017 (GMT -0500)
McGhee Tyson

Weather History for KTYS - February, 2013

Change the Weather History Date:

Sunday, February 10, 2013

  Actual Average Record
Temperature  
Mean Temperature 49 °F 41 °F  
Max Temperature 61 °F 51 °F 73 °F (1932)
Min Temperature 37 °F 31 °F -3 °F (1899)
Degree Days  
Heating Degree Days 16 24  
Month to date heating degree days 237 248  
Since 1 July heating degree days 2285 2510  
Cooling Degree Days 0 0  
Month to date cooling degree days 0 0  
Year to date cooling degree days 2 0  
Moisture  
Dew Point 34 °F    
Average Humidity 58    
Maximum Humidity 93    
Minimum Humidity 23    
Precipitation  
Precipitation 0.27 in 0.14 in 2.70 in (1994)
Month to date precipitation 0.52 1.51  
Year to date precipitation 13.19 5.83  
Snow  
Snow 0.00 in 0.10 in - ()
Month to date snowfall 1.2 0.7  
Since 1 July snowfall 2.6 4.2  
Snow Depth 0.00 in    
Sea Level Pressure  
Sea Level Pressure 30.13 in    
Wind  
Wind Speed 5 mph (NNE)    
Max Wind Speed 20 mph    
Max Gust Speed 26 mph    
Visibility 9 miles    
Events Rain    
T = Trace of Precipitation, MM = Missing Value Source: NWS Daily Summary

Daily Weather History Graph

Daily Weather History Graph

Search for Another Location

Airport or City:

Trip Planner

Search our weather history database for the weather conditions in past years. The results will help you decide how hot, cold, wet, or windy it might be!

Date:

Astronomy

Feb. 10, 2013 Rise Set
Actual Time 7:27 AM EST 6:12 PM EST
Civil Twilight 7:01 AM EST 6:39 PM EST
Nautical Twilight 6:31 AM EST 7:09 PM EST
Astronomical Twilight 6:01 AM EST 7:39 PM EST
Moon 7:19 AM EST (2/10) 6:59 PM EST (2/10)
Length of Visible Light 11h 37m
Length of Day
10h 44m
New Moon, 0% of the Moon is Illuminated
Feb 10
New Moon
Feb 17
First Quarter
Feb 25
Full
Mar 4
Last Quarter
Mar 11
New

Hourly Weather History & Observations

Time (EST) Temp. Windchill Dew Point Humidity Pressure Visibility Wind Dir Wind Speed Gust Speed Precip Events Conditions
12:53 AM 39.0 °F - 26.1 °F 60% 30.23 in 10.0 mi Calm Calm - N/A   Clear
1:53 AM 39.0 °F - 27.0 °F 62% 30.23 in 10.0 mi Calm Calm - N/A   Clear
2:53 AM 39.0 °F - 28.0 °F 65% 30.22 in 10.0 mi Calm Calm - N/A   Clear
3:53 AM 37.9 °F - 28.0 °F 68% 30.23 in 10.0 mi Calm Calm - N/A   Clear
4:53 AM 39.0 °F - 28.0 °F 65% 30.23 in 10.0 mi Calm Calm - N/A   Partly Cloudy
5:53 AM 37.9 °F - 28.9 °F 70% 30.23 in 10.0 mi Calm Calm - N/A   Partly Cloudy
6:53 AM 37.4 °F - 28.4 °F 70% 30.23 in 10.0 mi Calm Calm - N/A   Partly Cloudy
7:53 AM 37.9 °F 35.5 °F 30.9 °F 76% 30.24 in 10.0 mi NNW 3.5 mph - N/A   Scattered Clouds
8:53 AM 41.0 °F - 28.0 °F 60% 30.24 in 10.0 mi Calm Calm - N/A   Mostly Cloudy
9:53 AM 43.0 °F 41.3 °F 28.0 °F 56% 30.25 in 10.0 mi NNW 3.5 mph - N/A   Mostly Cloudy
10:53 AM 46.0 °F 43.9 °F 28.0 °F 50% 30.22 in 10.0 mi NNE 4.6 mph - N/A   Scattered Clouds
11:53 AM 52.0 °F - 28.9 °F 41% 30.19 in 10.0 mi Calm Calm - N/A   Mostly Cloudy
12:53 PM 57.9 °F - 28.0 °F 32% 30.12 in 10.0 mi SSW 5.8 mph - N/A   Mostly Cloudy
1:53 PM 60.1 °F - 23.0 °F 24% 30.08 in 10.0 mi South 15.0 mph 20.7 mph N/A   Mostly Cloudy
2:53 PM 60.1 °F - 23.0 °F 24% 30.06 in 10.0 mi South 13.8 mph 17.3 mph N/A   Scattered Clouds
3:53 PM 57.9 °F - 32.0 °F 37% 30.04 in 10.0 mi SSE 12.7 mph 26.5 mph 0.00 in Rain Light Rain
4:53 PM 54.0 °F - 37.9 °F 55% 30.05 in 5.0 mi SSE 5.8 mph - 0.01 in Rain Rain
5:30 PM 50.0 °F - 42.8 °F 76% 30.07 in 2.5 mi SE 3.5 mph - 0.09 in Rain Heavy Rain
5:53 PM 50.0 °F - 44.1 °F 80% 30.06 in 2.5 mi ESE 5.8 mph - 0.16 in Rain Rain
6:53 PM 48.9 °F - 45.0 °F 86% 30.05 in 6.0 mi ESE 6.9 mph - 0.10 in Rain Light Rain
7:53 PM 48.0 °F - 45.0 °F 89% 30.06 in 10.0 mi WNW 13.8 mph - 0.00 in Rain Light Rain
8:05 PM 48.2 °F - 44.6 °F 87% 30.05 in 10.0 mi NW 12.7 mph - 0.00 in Rain Light Rain
8:53 PM 46.9 °F - 45.0 °F 93% 30.04 in 10.0 mi North 4.6 mph - 0.00 in   Overcast
9:53 PM 46.9 °F - 45.0 °F 93% 30.01 in 9.0 mi NNW 3.5 mph - N/A   Overcast
10:53 PM 46.0 °F 44.8 °F 44.1 °F 93% 29.98 in 6.0 mi NNE 3.5 mph - N/A   Overcast
11:53 PM 46.9 °F - 44.1 °F 90% 29.99 in 7.0 mi North 5.8 mph - N/A   Overcast